Weather History for KUTA - March, 2013

Change the Weather History Date:

Wednesday, March 27, 2013

  Actual Average (KMEM) Record (KMEM)
Temperature  
Mean Temperature 42 °F 57 °F  
Max Temperature 55 °F 67 °F 85 °F (1910)
Min Temperature 30 °F 47 °F 22 °F (1955)
Degree Days  
Heating Degree Days 22 9  
Month to date heating degree days 326  
Since 1 July heating degree days 2776  
Cooling Degree Days 0 1  
Month to date cooling degree days 12  
Year to date cooling degree days 15  
Moisture  
Dew Point 31 °F    
Average Humidity 66    
Maximum Humidity 93    
Minimum Humidity 38    
Precipitation  
Precipitation 0.00 in 0.17 in 2.20 in (1994)
Month to date precipitation 4.43  
Year to date precipitation 12.80  
Snow  
Snow 0.00 in 0.00 in T in (1937)
Month to date snowfall 0.4  
Since 1 July snowfall 3.8  
Snow Depth -    
Sea Level Pressure  
Sea Level Pressure 30.38 in    
Wind  
Wind Speed 4 mph (South)    
Max Wind Speed 10 mph    
Max Gust Speed 9 mph    
Visibility 10 miles    
Events      
T = Trace of Precipitation, MM = Missing Value Source: NWS Daily Summary

Daily Weather History Graph

Daily Weather History Graph

Search for Another Location

Airport or City:

Trip Planner

Search our weather history database for the weather conditions in past years. The results will help you decide how hot, cold, wet, or windy it might be!

Date:

Astronomy

Mar. 27, 2013 Rise Set
Actual Time 6:54 AM CDT 7:18 PM CDT
Civil Twilight 6:29 AM CDT 7:44 PM CDT
Nautical Twilight 6:00 AM CDT 8:13 PM CDT
Astronomical Twilight 5:30 AM CDT 8:43 PM CDT
Moon 7:59 PM CDT (3/27) 6:48 AM CDT (3/27)
Length of Visible Light 13h 14m
Length of Day
12h 23m
Full, 100% of the Moon is Illuminated
Mar 27
Full
Apr 2
Last Quarter
Apr 10
New
Apr 18
First Quarter
Apr 25
Full

Hourly Weather History & Observations

Time (CDT) Temp. Windchill Dew Point Humidity Pressure Visibility Wind Dir Wind Speed Gust Speed Precip Events Conditions
12:15 AM 33.8 °F 30.8 °F 30.2 °F 87% 30.39 in 10.0 mi SSE 3.5 mph - N/A   Clear
12:35 AM 35.6 °F 30.7 °F 28.4 °F 75% 30.38 in 10.0 mi South 5.8 mph - N/A   Clear
12:55 AM 35.6 °F 30.7 °F 28.4 °F 75% 30.38 in 10.0 mi SSE 5.8 mph - N/A   Clear
1:15 AM 33.8 °F 29.6 °F 28.4 °F 81% 30.38 in 10.0 mi SSE 4.6 mph - N/A   Clear
1:35 AM 33.8 °F - 28.4 °F 81% 30.38 in 10.0 mi Calm Calm - N/A   Clear
1:55 AM 32.0 °F - 30.2 °F 93% 30.38 in 10.0 mi Calm Calm - N/A   Clear
2:15 AM 32.0 °F 28.7 °F 28.4 °F 87% 30.38 in 10.0 mi SSE 3.5 mph - N/A   Clear
2:55 AM 32.0 °F - 28.4 °F 87% 30.38 in 10.0 mi Calm Calm - N/A   Clear
3:15 AM 32.0 °F 26.4 °F 28.4 °F 87% 30.39 in 10.0 mi SW 5.8 mph - N/A   Clear
3:35 AM 32.0 °F 27.5 °F 28.4 °F 87% 30.39 in 10.0 mi SW 4.6 mph - N/A   Clear
3:55 AM 32.0 °F - 28.4 °F 87% 30.38 in 10.0 mi Calm Calm - N/A   Clear
4:15 AM 32.0 °F - 28.4 °F 87% 30.38 in 10.0 mi Calm Calm - N/A   Clear
4:35 AM 32.0 °F 27.5 °F 28.4 °F 87% 30.38 in 10.0 mi SSW 4.6 mph - N/A   Clear
4:55 AM 32.0 °F 26.4 °F 28.4 °F 87% 30.39 in 10.0 mi SSW 5.8 mph - N/A   Clear
5:15 AM 32.0 °F 27.5 °F 28.4 °F 87% 30.39 in 10.0 mi South 4.6 mph - N/A   Clear
5:35 AM 32.0 °F 27.5 °F 28.4 °F 87% 30.38 in 10.0 mi SSW 4.6 mph - N/A   Clear
5:55 AM 32.0 °F 28.7 °F 28.4 °F 87% 30.38 in 10.0 mi South 3.5 mph - N/A   Clear
6:15 AM 32.0 °F - 28.4 °F 87% 30.39 in 10.0 mi Calm Calm - N/A   Clear
6:35 AM 32.0 °F - 28.4 °F 87% 30.40 in 10.0 mi Calm Calm - N/A   Clear
6:55 AM 32.0 °F - 28.4 °F 87% 30.41 in 10.0 mi Calm Calm - N/A   Clear
7:15 AM 32.0 °F - 28.4 °F 87% 30.40 in 10.0 mi Calm Calm - N/A   Clear
7:35 AM 30.2 °F 26.7 °F 28.4 °F 93% 30.41 in 10.0 mi SSE 3.5 mph - N/A   Clear
7:55 AM 32.0 °F 27.5 °F 30.2 °F 93% 30.41 in 10.0 mi SSE 4.6 mph - N/A   Clear
8:15 AM 33.8 °F - 32.0 °F 93% 30.43 in 10.0 mi Calm Calm - N/A   Clear
8:55 AM 37.4 °F 34.9 °F 32.0 °F 81% 30.44 in 10.0 mi South 3.5 mph - N/A   Clear
9:15 AM 41.0 °F 37.1 °F 32.0 °F 70% 30.45 in 10.0 mi SW 5.8 mph - N/A   Clear
9:35 AM 42.8 °F 38.6 °F 32.0 °F 66% 30.44 in 10.0 mi SSW 6.9 mph - N/A   Clear
9:55 AM 44.6 °F 39.2 °F 32.0 °F 61% 30.45 in 10.0 mi SSW 10.4 mph - N/A   Clear
10:15 AM 46.4 °F 41.5 °F 32.0 °F 57% 30.44 in 10.0 mi SSW 10.4 mph - N/A   Clear
10:35 AM 46.4 °F 42.4 °F 32.0 °F 57% 30.45 in 10.0 mi SSW 8.1 mph - N/A   Clear
10:55 AM 46.4 °F 42.4 °F 30.2 °F 53% 30.45 in 10.0 mi South 8.1 mph - N/A   Clear
11:15 AM 48.2 °F - 30.2 °F 50% 30.45 in 10.0 mi SW 5.8 mph - N/A   Clear
11:35 AM 50.0 °F - 30.2 °F 47% 30.44 in 10.0 mi South 8.1 mph - N/A   Clear
11:55 AM 50.0 °F - 30.2 °F 47% 30.44 in 10.0 mi SSW 4.6 mph - N/A   Clear
12:15 PM 50.0 °F - 30.2 °F 47% 30.44 in 10.0 mi SW 5.8 mph - N/A   Clear
12:35 PM 51.8 °F - 32.0 °F 47% 30.44 in 10.0 mi SSW 6.9 mph - N/A   Clear
12:55 PM 51.8 °F - 30.2 °F 44% 30.43 in 10.0 mi South 3.5 mph 9.2 mph N/A   Clear
1:15 PM 51.8 °F - 30.2 °F 44% 30.43 in 10.0 mi SW 6.9 mph - N/A   Clear
1:35 PM 51.8 °F - 30.2 °F 44% 30.41 in 10.0 mi SW 9.2 mph - N/A   Clear
1:55 PM 51.8 °F - 30.2 °F 44% 30.41 in 10.0 mi SW 8.1 mph - N/A   Clear
2:15 PM 53.6 °F - 30.2 °F 41% 30.39 in 10.0 mi SW 9.2 mph - N/A   Clear
2:35 PM 53.6 °F - 32.0 °F 44% 30.38 in 10.0 mi SW 9.2 mph - N/A   Clear
2:55 PM 53.6 °F - 32.0 °F 44% 30.37 in 10.0 mi SSW 8.1 mph - N/A   Clear
3:15 PM 53.6 °F - 32.0 °F 44% 30.36 in 10.0 mi WSW 3.5 mph - N/A   Clear
3:35 PM 53.6 °F - 30.2 °F 41% 30.35 in 10.0 mi South 5.8 mph - N/A   Clear
3:55 PM 55.4 °F - 30.2 °F 38% 30.34 in 10.0 mi WSW 4.6 mph - N/A   Clear
4:15 PM 55.4 °F - 30.2 °F 38% 30.34 in 10.0 mi WSW 9.2 mph - N/A   Clear
4:35 PM 53.6 °F - 32.0 °F 44% 30.34 in 10.0 mi SSW 4.6 mph - N/A   Clear
4:55 PM 55.4 °F - 30.2 °F 38% 30.34 in 10.0 mi SSW 4.6 mph - N/A   Clear
5:15 PM 55.4 °F - 32.0 °F 41% 30.33 in 10.0 mi SW 5.8 mph - N/A   Clear
5:35 PM 53.6 °F - 28.4 °F 38% 30.33 in 10.0 mi SSE 3.5 mph - N/A   Clear
5:55 PM 53.6 °F - 32.0 °F 44% 30.33 in 10.0 mi SSE 4.6 mph - N/A   Clear
6:15 PM 53.6 °F - 30.2 °F 41% 30.32 in 10.0 mi Calm Calm - N/A   Clear
6:35 PM 53.6 °F - 32.0 °F 44% 30.32 in 10.0 mi SSE 4.6 mph - N/A   Clear
6:55 PM 51.8 °F - 32.0 °F 47% 30.33 in 10.0 mi Calm Calm - N/A   Clear
7:15 PM 51.8 °F - 33.8 °F 50% 30.32 in 10.0 mi SSE 3.5 mph - N/A   Clear
7:35 PM 50.0 °F - 37.4 °F 62% 30.32 in 10.0 mi SE 3.5 mph - N/A   Clear
7:55 PM 50.0 °F - 35.6 °F 58% 30.32 in 10.0 mi SE 4.6 mph - N/A   Clear
8:15 PM 48.2 °F - 37.4 °F 66% 30.31 in 10.0 mi SE 5.8 mph - N/A   Clear
8:35 PM 48.2 °F - 37.4 °F 66% 30.31 in 10.0 mi ESE 4.6 mph - N/A   Clear
8:55 PM 46.4 °F - 37.4 °F 71% 30.32 in 10.0 mi Calm Calm - N/A   Clear
9:15 PM 48.2 °F - 35.6 °F 62% 30.31 in 10.0 mi Calm Calm - N/A   Clear
9:35 PM 46.4 °F 45.2 °F 37.4 °F 71% 30.31 in 10.0 mi ESE 3.5 mph - N/A   Clear
9:55 PM 44.6 °F 42.2 °F 35.6 °F 71% 30.31 in 10.0 mi ESE 4.6 mph - N/A   Clear
10:15 PM 44.6 °F 43.1 °F 35.6 °F 71% 30.32 in 10.0 mi ESE 3.5 mph - N/A   Clear
10:35 PM 44.6 °F - 37.4 °F 76% 30.32 in 10.0 mi Calm Calm - N/A   Clear
10:55 PM 42.8 °F - 35.6 °F 76% 30.33 in 10.0 mi Calm Calm - N/A   Clear
11:15 PM 42.8 °F - 35.6 °F 76% 30.33 in 10.0 mi Calm Calm - N/A   Clear
11:35 PM 41.0 °F - 37.4 °F 87% 30.33 in 10.0 mi Calm Calm - N/A   Clear
11:55 PM 41.0 °F - 37.4 °F 87% 30.33 in 10.0 mi Calm Calm - N/A   Clear